Weather Roundup
Issued by NWS Chicago, IL

Home | Current Version | Previous Version | Text Only | Print | Product List | Glossary Off
Versions: 1 2 3 4 5 6 7 8 9 10 11 12 13 14 15 16 17 18 19 20 21 22 23 24 25 26 27 28 29 30 31 32 33 34 35 36 37 38 39 40 41 42 43 44 45 46 47 48 49 50

000
NZUS59 KLOT 262200
HRRLOT

CHICAGO AREA WEATHER ROUNDUP
NATIONAL WEATHER SERVICE CHICAGO/ROMEOVILLE IL
400 PM CST WED NOV 26 2014

NOTE: "FAIR" INDICATES FEW OR NO CLOUDS BELOW 12,000 FEET WITH NO
SIGNIFICANT WEATHER AND/OR OBSTRUCTIONS TO VISIBILITY.

* THESE STATIONS ARE NOT UNDER NWS QUALITY CONTROL. THEY ALSO MAY NOT
  REPORT WEATHER SUCH AS PRECIPITATION OR FOG.

ILZ005-006-012>014-019>023-262300-
NORTHEAST ILLINOIS

CITY           SKY/WX    TMP DP  RH WIND       PRES   REMARKS
OHARE          CLOUDY    28  21  75 E7        30.11R WCI  21
MIDWAY         CLOUDY    29  19  66 E6        30.13R WCI  23
AURORA         MOCLDY    27  17  66 E5        30.12R WCI  22
WAUKEGAN       CLOUDY    28  22  78 N5        30.12R WCI  23
DUPAGE AIRPORT CLOUDY    28  19  69 E3        30.11R
WHEELING       CLOUDY    29  21  72 CALM      30.14R
NORTHERLY IS     N/A     28  21  75 SE6         N/A  WCI  22
$$

WIZ051-052-058>065-066-070>072-262300-
SOUTHEAST WISCONSIN

CITY           SKY/WX    TMP DP  RH WIND       PRES   REMARKS
MILWAUKEE      CLOUDY    30  21  69 CALM      30.13R
KENOSHA*       CLOUDY    28  23  81 N6        30.12S HAZE    WCI  22
RACINE*        CLOUDY    29  22  75 NW3       30.15R
WAUKESHA       CLOUDY    27  21  80 W5        30.14R WCI  21
$$

INZ001>003-010>013-019-020-262300-
NORTHWEST INDIANA

CITY           SKY/WX    TMP DP  RH WIND       PRES   REMARKS
GARY*          CLOUDY    30  19  64 SE3       30.13R
MICHIGAN CITY* NOT AVBL
RENSSELAER*    NOT AVBL
$$

LMZ740>746-262300-
SOUTHERN LAKE MICHIGAN

STATION/POSITION TIME  SKY/WX   TEMP WIND        PRES    VSBY
                                AIR  DIR/SP/G
                 (UTC)          (F)  (DEG/KT/KT) (MB)    (MI)
HARRISON CRIB    2100            27  120/  7/  9   N/A
BURNHAM HARBOR   2200            28  110/  1/  7   N/A
CALUMET HARBOR   2100            27   80/  4/  6 1018.9R
BURNS HARBOR     NOT AVBL
MICHIGAN CITY    2100            27   90/  5/  6   N/A
$$

ABBREVIATIONS USED IN REMARKS
   TC - TEMPERATURE IN CELSIUS
  WCI - WIND CHILL INDEX
   HX - HEAT INDEX
  VSB - VISIBILITY
$$


USA.gov is the U.S. government's official web portal to all federal, state and local government web resources and services.